Content
SEND FEEDBACK

Daily
Averages
Monthly
Summary
French Polynesia

PAPEETE, FRENCH POLYNESIA


Home > Oceania > French Polynesia
Elevation: 7 feet     Latitude: 17 33S     Longitude: 149 36W

WEATHER
 
SELECT A DAY
Number of Records: 208,679;   Date Range: 6/30/96 - 8/10/14
 
SHARE

PRINT THIS DATA

[ ← Previous Day ]
WEATHER ALMANAC - JULY 21, 2013
[ Next Day → ]
[ °C ]   °F
Weather ElementAverageHighLow
Temperature75.2 °F80.6 °F (10:30 am)68 °F (3:00 am)
Dewpoint63.3 °F68 °F (3:00 pm)57.2 °F (12:30 am)
Humidity65.5 %78 % (10:00 pm)50 % (11:00 am)
Barometer30.02 in30.06 in (10:30 pm)29.95 in (2:30 pm)
Wind Speed6.3 mph15.7 mph (11:00 am)
Weather ElementAverage
Visibility8.4 mi
Wind DirectionSSE (163.6 °)

Weather ElementTotal
Precipitation---
Cooling Degree Days9.3 (Base 65)
Growing Degree Days24.3 (Base 50)
Averaged from 55 records on July 21, 2013
WEATHER CONDITIONS BREAKOUT
WIND DIRECTION BREAKOUT
WEATHER BY HOUR - JULY 21, 2013
[ °C ]   °F
Local TimeTemperatureDewpointHumidityBarometerVisibilityWind DirectionWind SpeedGust SpeedPrecipitationEventsConditions
12:30 AM69.8 °F57.2 °F64 %30.04 in6.2 miSE (130°)3.5 mphPartly Cloudy
1:00 AM69.8 °F57.2 °F64 %30.04 in6.2 miVariable3.5 mphPartly Cloudy
1:30 AM69.8 °F57.2 °F64 %30.04 in6.2 miSSE (160°)6.9 mphPartly Cloudy
2:00 AM69.0 °F58.0 °F61 %30.04 in12.0 miENE (70°)4.6 mphScattered Clouds
2:00 AM69.8 °F59.0 °F68 %30.04 in6.2 miENE (70°)4.6 mphPartly Cloudy
2:30 AM69.8 °F57.2 °F64 %30.01 in6.2 miESE (110°)5.8 mphPartly Cloudy
3:00 AM68.0 °F59.0 °F73 %30.01 in6.2 miVariable2.3 mphPartly Cloudy
3:30 AM68.0 °F59.0 °F73 %30.01 in6.2 miSE (140°)3.5 mph
4:00 AM68.0 °F59.0 °F73 %30.01 in6.2 miESE (110°)4.6 mph
4:30 AM68.0 °F59.0 °F73 %30.01 in6.2 miESE (120°)4.6 mph
5:00 AM69.0 °F58.0 °F59 %30.01 in37.0 miSouth (170°)8.1 mphClear
5:00 AM69.8 °F57.2 °F64 %30.01 in6.2 miSouth (170°)8.1 mphPartly Cloudy
5:30 AM69.8 °F59.0 °F68 %30.01 in6.2 miEast (90°)4.6 mphPartly Cloudy
6:00 AM69.8 °F59.0 °F68 %30.01 in6.2 miEast (100°)4.6 mphScattered Clouds
6:30 AM69.8 °F59.0 °F68 %30.01 in6.2 miVariable3.5 mphScattered Clouds
7:00 AM71.6 °F60.8 °F69 %30.04 in6.2 miSouth (170°)5.8 mphMostly Cloudy
7:30 AM71.6 °F60.8 °F69 %30.04 in6.2 miEast (90°)4.6 mphMostly Cloudy
8:00 AM74.0 °F63.0 °F60 %30.05 in25.0 miNE (50°)8.9 mphPartly Cloudy
8:00 AM75.2 °F62.6 °F65 %30.04 in6.2 miNE (50°)4.6 mphMostly Cloudy
8:30 AM77.0 °F62.6 °F61 %30.04 in6.2 miVariable1.2 mphMostly Cloudy
9:00 AM78.8 °F62.6 °F57 %30.04 in6.2 miNW (310°)3.5 mphMostly Cloudy
9:30 AM78.8 °F64.4 °F61 %30.04 in6.2 miWSW (250°)6.9 mphMostly Cloudy
10:00 AM78.8 °F64.4 °F61 %30.04 in6.2 miWest (270°)5.8 mphMostly Cloudy
10:30 AM80.6 °F64.4 °F58 %30.04 in6.2 miWest (280°)5.8 mphMostly Cloudy
11:00 AM80.0 °F65.0 °F50 %30.04 in25.0 miWest (260°)15.7 mphScattered Clouds
11:00 AM80.6 °F64.4 °F58 %30.04 in6.2 miWest (260°)8.1 mphMostly Cloudy
11:30 AM80.6 °F66.2 °F61 %30.01 in6.2 miWest (260°)10.4 mphScattered Clouds
12:00 PM80.6 °F64.4 °F58 %30.01 in6.2 miWSW (240°)10.4 mphScattered Clouds
12:30 PM80.6 °F66.2 °F61 %29.98 in6.2 miWest (270°)10.4 mphMostly Cloudy
1:00 PM80.6 °F66.2 °F61 %29.98 in6.2 miWest (280°)10.4 mphMostly Cloudy
1:30 PM80.6 °F64.4 °F58 %29.98 in6.2 miWest (280°)9.2 mphMostly Cloudy
2:00 PM80.0 °F65.0 °F52 %29.98 in25.0 miWest (280°)8.1 mphScattered Clouds
2:00 PM80.6 °F66.2 °F61 %29.98 in6.2 miWest (280°)8.1 mphMostly Cloudy
2:30 PM80.6 °F66.2 °F61 %29.95 in6.2 miWest (270°)9.2 mphMostly Cloudy
3:00 PM80.6 °F68.0 °F65 %29.98 in6.2 miWest (260°)11.5 mphMostly Cloudy
3:30 PM78.8 °F66.2 °F65 %29.98 in6.2 miWest (270°)13.8 mphMostly Cloudy
4:00 PM78.8 °F64.4 °F61 %29.98 in6.2 miWSW (240°)6.9 mphMostly Cloudy
4:30 PM78.8 °F66.2 °F65 %29.98 in6.2 miWest (260°)8.1 mphMostly Cloudy
5:00 PM78.0 °F66.0 °F57 %30.01 in25.0 miWest (270°)8.1 mphScattered Clouds
5:00 PM78.8 °F66.2 °F65 %30.01 in6.2 miWest (270°)8.1 mphMostly Cloudy
5:30 PM78.8 °F66.2 °F65 %30.01 in6.2 miWest (280°)8.1 mphMostly Cloudy
6:00 PM77.0 °F66.2 °F69 %30.01 in6.2 miWest (280°)5.8 mphMostly Cloudy
6:30 PM77.0 °F66.2 °F69 %30.01 in6.2 miSW (230°)8.1 mphMostly Cloudy
7:00 PM77.0 °F66.2 °F69 %30.01 in6.2 miWest (270°)8.1 mphMostly Cloudy
7:30 PM77.0 °F66.2 °F69 %30.04 in6.2 miVariable6.9 mphOvercast
8:00 PM76.0 °F66.0 °F63 %30.05 in12.0 miSW (220°)3.5 mphScattered Clouds
8:00 PM77.0 °F66.2 °F69 %30.04 in6.2 miVariable3.5 mphMostly Cloudy
8:30 PM75.2 °F66.2 °F73 %30.04 in6.2 miEast (90°)4.6 mphMostly Cloudy
9:00 PM75.2 °F66.2 °F73 %30.04 in6.2 miVariable3.5 mphMostly Cloudy
9:30 PM75.2 °F66.2 °F73 %30.04 in6.2 miSE (130°)1.2 mphMostly Cloudy
10:00 PM73.4 °F66.2 °F78 %30.04 in6.2 miEast (80°)3.5 mphMostly Cloudy
10:30 PM73.4 °F66.2 °F78 %30.06 in6.2 miVariable3.5 mphMostly Cloudy
11:00 PM73.0 °F66.0 °F72 %30.06 in12.0 miSouth (170°)4.5 mphScattered Clouds
11:00 PM73.4 °F66.2 °F78 %30.04 in6.2 miVariable2.3 mphMostly Cloudy
11:30 PM73.4 °F66.2 °F78 %30.04 in6.2 miEast (90°)4.6 mphMostly Cloudy
Hourly data recorded from NTAA, located miles away from Papeete, French Polynesia







STORIES FROM OUR PARTNERS